Location: Monsanto
(38.0260°N, 122.0555°W)
Time: 14:24:43
(UTC+00:00)

Daily predictions for brighter satellites

Satellite Brightness Start Highest point End
(mag) Time Altitude Azimuth Time Altitude Azimuth Time Altitude Azimuth
Cosmos 2061 Rocket 4.2 12:00:21 10° N 12:06:45 80° E 12:13:03 10° S
Cosmos 2263 Rocket 2.2 12:02:20 10° NNW 12:07:54 68° WSW 12:13:27 10° S
AQUA 3.8 12:04:37 10° N 12:09:19 78° WNW 12:13:58 10° SSW
